Regional Weather Roundup
Issued by NWS Sioux Falls, SD

Home | Current Version | Previous Version | Text Only | Print | Product List | Glossary On
Versions: 1 2 3 4 5 6 7 8 9 10 11 12 13 14 15 16 17 18 19 20 21 22 23 24 25 26 27 28 29 30 31 32 33 34 35 36 37 38 39 40 41 42 43 44 45 46 47 48 49 50
000
ASUS43 KFSD 181210
RWRFSD

WEATHER ROUNDUP FOR SE SOUTH DAKOTA/SW MINNESOTA/NW IOWA
NATIONAL WEATHER SERVICE SIOUX FALLS SD
600 AM CST THU DEC 18 2014

NOTE: "FAIR" INDICATES FEW OR NO CLOUDS BELOW 12,000 FEET WITH NO
SIGNIFICANT WEATHER AND OR OBSTRUCTIONS TO VISIBILITY.


SDZ038>040-050-052>070-181300-
SOUTHEAST SOUTH DAKOTA

CITY           SKY/WX    TMP DP  RH WIND       PRES   REMARKS
CHAMBERLAIN    CLOUDY    20  18  91 SE9       30.14S WCI   9
6HR MIN TEMP:  17; 6HR MAX TEMP:  20;

HURON          CLOUDY    19  15  84 SE7       30.19F WCI  10
6HR MIN TEMP:  14; 6HR MAX TEMP:  19;

MADISON        CLOUDY    16  16 100 SE5       30.18S WCI   9
MITCHELL       CLOUDY    21  17  84 SE6       30.20F WCI  13
6HR MIN TEMP:  16; 6HR MAX TEMP:  21;

SIOUX FALLS    CLOUDY    19  15  84 E6        30.21S WCI  11
6HR MIN TEMP:  13; 6HR MAX TEMP:  19;

WINNER         CLOUDY    24  21  88 SE8       30.10S WCI  15
YANKTON        CLOUDY    21  18  86 E6        30.21F WCI  14
$$

MNZ071-072-080-081-089-090-097-098-181300-
SOUTHWEST MINNESOTA

CITY           SKY/WX    TMP DP  RH WIND       PRES   REMARKS
FAIRMONT       CLOUDY    14  10  85 CALM      30.25S
JACKSON        CLOUDY    16  12  86 E5        30.23S WCI   9
LUVERNE        CLOUDY    19  16  86 E5        30.23R WCI  13
MARSHALL       CLOUDY     7   1  78 CALM      30.25R
6HR MIN TEMP:   1; 6HR MAX TEMP:   7;

MONTEVIDEO     PTCLDY     5   3  92 CALM      30.27F
PIPESTONE      CLOUDY    16  12  86 CALM      30.19S
REDWOOD FALLS  PTCLDY     5   2  87 CALM      30.27F
TRACY          CLOUDY    12  10  91 CALM      30.24S
WINDOM           N/A     10   9  92 CALM      30.23S
WORTHINGTON    CLOUDY    12  12 100 E5        30.22S WCI   4
$$

IAZ001>003-012>014-020>022-031-032-NEZ013-014-SDZ071-181300-
NORTHWEST IOWA

CITY           SKY/WX    TMP DP  RH WIND       PRES   REMARKS
CHEROKEE       CLOUDY    20  19  93 E5        30.25R WCI  14
DENISON        CLOUDY    23  21  93 E6        30.21S WCI  16
ESTHERVILLE    CLOUDY    14  12  92 E5        30.24S WCI   6
LE MARS        CLOUDY    23  21  93 SE5       30.24R WCI  17
ORANGE CITY    CLOUDY    21  18  86 E5        30.22R WCI  15
SHELDON        CLOUDY    18  16  93 E8        30.22S WCI   7
SIOUX CITY     CLOUDY    26  21  81 SE5       30.23S WCI  20
6HR MIN TEMP:  25; 6HR MAX TEMP:  26;

SPENCER        CLOUDY    18  13  80 SE6       30.24R WCI  10
6HR MIN TEMP:  13; 6HR MAX TEMP:  18;

STORM LAKE     CLOUDY    19  18  93 SE8       30.24R WCI   9
$$

ABBREVIATIONS USED IN REMARKS
   TC - TEMPERATURE IN CELSIUS
  WCI - WIND CHILL INDEX
   HX - HEAT INDEX
  VSB - VISIBILITY



USA.gov is the U.S. government's official web portal to all federal, state and local government web resources and services.